Wind_Speed
13 14 16 18 21 23 25 28 30 33 36 36 34 38 39 41 43 45 46 47 50 51 51 50 44 39 36 36 39 46 47 40 35 35 33 25 26 26 33 34 40 56 77 81
13 16 18 22 24 27 29 31 34 34 40 43 37 38 37 40 42 45 45 46 48 50 50 50 45 41 38 37 38 44 52 46 36 32 33 30 29 28 30 36 40 52 67 83
16 19 22 24 27 30 33 35 37 41 42 42 42 37 41 41 43 47 45 46 48 50 51 51 52 48 45 41 41 42 46 52 42 31 30 27 28 30 32 35 35 43 55 78
19 21 24 27 30 32 35 38 40 43 45 41 43 43 45 47 46 49 45 46 48 50 50 50 51 51 48 44 41 46 42 51 50 37 30 29 29 29 32 36 39 36 50 65
22 24 27 29 31 33 37 40 44 44 43 41 45 46 47 50 51 47 46 47 49 51 51 50 50 51 49 45 43 45 45 46 48 41 33 35 33 30 33 36 38 38 36 53
24 26 27 29 31 34 38 42 43 45 42 40 45 45 49 53 51 49 47 48 51 54 53 51 48 48 48 44 43 45 46 48 49 43 36 38 42 39 37 33 38 41 38 37
22 26 27 29 33 34 36 40 43 45 41 42 44 48 47 53 54 48 50 51 52 56 55 55 51 49 48 45 43 45 49 47 52 52 37 39 44 48 45 44 40 41 48 44
23 26 28 31 33 35 36 40 44 43 43 43 43 49 50 50 53 51 50 50 53 55 56 58 55 55 51 45 44 46 50 51 56 57 41 32 42 44 49 51 54 49 50 55
33 31 33 35 35 35 37 39 40 43 43 45 50 49 50 52 53 49 47 52 54 54 58 59 59 56 55 46 46 47 52 54 60 61 46 33 36 41 50 58 63 64 65 63
36 35 34 36 37 34 35 36 42 44 48 50 52 52 51 52 52 49 51 54 56 57 60 60 57 57 58 47 47 50 54 57 63 64 48 37 38 43 52 60 67 73 77 77
39 37 36 37 40 34 35 35 41 44 49 52 58 53 49 52 51 52 54 56 57 59 60 60 58 58 60 50 49 51 56 59 65 66 56 41 40 50 57 70 77 80 84 85
39 39 38 37 40 39 31 38 41 46 48 50 56 54 49 54 56 56 56 57 56 59 59 61 62 59 63 53 51 54 57 62 67 67 65 48 53 58 65 58 58 61 66 75
39 40 43 39 44 42 31 40 45 48 47 51 54 57 51 57 56 56 56 56 55 61 62 64 68 61 63 53 51 56 58 62 68 71 65 57 63 62 53 47 48 49 55 64
39 37 35 30 35 39 34 37 46 46 53 57 52 57 49 53 55 56 55 57 60 59 62 65 67 63 64 55 52 57 59 64 69 72 65 61 65 54 46 43 42 46 45 50
39 41 42 31 40 44 37 40 48 54 53 53 52 57 53 54 56 51 54 58 60 57 61 63 63 64 64 58 52 57 60 65 70 72 64 60 62 48 47 44 41 41 39 46
39 45 48 42 46 50 46 49 55 52 49 51 55 50 54 57 60 57 58 60 61 59 62 63 62 64 63 59 52 56 59 65 71 73 62 58 58 45 45 45 41 37 35 45
44 47 50 51 49 53 47 47 52 53 50 52 56 54 54 54 59 61 63 66 68 65 62 61 61 62 63 58 51 55 59 64 71 73 59 56 56 44 44 45 40 37 36 44
44 45 49 51 51 55 42 43 50 57 55 56 56 57 60 61 64 68 71 70 71 71 66 64 61 61 61 56 50 54 59 65 70 73 59 54 55 45 43 47 40 37 36 41
43 43 45 50 55 58 47 53 56 58 54 57 60 62 66 69 71 71 74 75 76 76 69 65 65 62 60 52 49 53 58 64 71 74 59 52 54 44 43 49 41 38 35 40
47 43 45 51 56 57 48 56 59 57 56 60 65 68 72 75 76 71 76 76 77 77 67 62 64 60 61 50 49 52 57 64 72 74 58 50 51 44 43 50 41 34 31 41
48 43 45 48 55 52 54 58 59 64 68 63 70 73 74 75 81 81 80 80 81 79 72 62 59 54 60 48 48 52 57 63 72 71 55 49 50 43 42 49 38 31 28 41
49 43 45 49 56 55 58 61 65 66 66 74 71 74 71 72 75 79 80 78 73 70 66 54 50 50 58 45 47 51 57 63 72 69 52 47 47 42 41 47 36 28 26 40
45 40 51 53 58 56 61 60 65 68 71 70 73 70 73 74 75 76 76 71 68 63 51 51 43 51 53 41 47 49 57 62 70 66 47 44 45 40 39 45 34 24 23 37
44 47 50 57 55 56 62 63 64 69 71 70 70 70 70 71 73 73 70 68 60 49 52 41 47 52 46 39 46 49 55 60 68 63 42 40 41 37 36 41 30 20 21 32
40 50 52 56 57 56 60 64 64 67 68 68 69 70 71 71 70 70 67 63 49 46 44 40 45 51 38 38 43 49 54 59 65 60 40 36 38 32 31 36 25 15 19 32
47 53 58 58 59 62 61 65 68 70 69 68 69 67 67 68 67 67 66 57 44 45 40 40 46 47 34 39 42 48 53 60 68 54 37 31 34 28 26 31 20 11 17 27
Wind_Direction
295 292 303 312 314 320 328 331 336 341 341 338 335 329 324 326 327 333 336 338 340 343 344 347 352 353 350 349 345 344 344 328 313 292 289 280 265 262 256 244 237 234 230 225
300 302 309 312 316 323 329 328 332 337 339 337 336 331 326 327 327 331 336 336 336 339 341 345 348 352 350 348 344 346 350 334 318 285 279 278 271 257 254 254 245 235 233 229
307 309 311 311 317 321 325 327 331 334 336 338 335 337 329 330 331 333 332 334 335 336 339 342 344 348 351 350 349 349 349 349 328 294 266 267 263 263 259 256 254 240 236 232
316 315 317 319 319 322 324 327 329 331 333 335 335 339 335 336 335 332 331 333 332 332 335 338 340 344 346 348 348 351 350 351 341 317 258 250 253 253 253 252 254 250 237 234
326 323 321 323 326 326 327 326 326 327 329 336 337 340 338 335 335 333 331 333 332 329 330 334 337 339 343 345 346 347 347 353 344 327 289 247 248 246 244 242 245 250 244 235
326 326 329 329 327 328 326 323 322 325 329 336 336 340 339 336 339 335 332 331 331 331 328 331 335 336 338 341 342 343 344 351 350 333 302 266 249 249 251 248 242 240 245 243
336 329 330 328 328 327 324 321 323 324 328 333 336 337 339 336 337 336 333 331 333 333 333 331 332 335 336 339 339 340 341 343 349 338 315 279 257 249 251 255 253 246 239 237
334 328 329 328 327 330 331 325 325 326 329 328 330 336 338 333 334 334 332 334 337 336 336 336 334 334 334 335 335 337 338 340 341 343 322 290 261 256 255 254 252 250 249 241
331 336 334 329 331 333 332 325 324 324 323 326 329 332 333 332 332 335 334 336 336 335 334 335 334 332 333 333 332 332 335 337 339 343 327 303 277 265 263 260 261 257 254 244
327 332 331 330 331 336 333 327 326 324 328 327 327 331 330 330 332 333 332 334 335 332 333 333 334 331 332 330 330 331 333 334 337 343 328 310 285 276 272 274 274 267 260 251
321 325 330 331 328 333 334 328 323 323 325 323 322 333 334 330 332 330 330 330 332 331 331 333 333 330 329 328 327 330 332 334 337 340 326 311 295 290 292 282 273 266 257 248
319 321 325 333 326 332 337 328 323 319 320 320 318 328 333 326 327 328 330 328 330 329 329 330 331 331 328 328 327 328 332 335 338 339 330 316 311 308 298 287 275 263 254 244
318 322 323 330 326 331 337 328 321 314 314 317 318 323 328 323 327 327 330 328 330 330 327 327 329 329 330 327 326 327 332 336 337 339 332 321 320 314 307 296 281 270 268 244
319 321 326 333 323 325 325 318 313 311 314 313 321 318 319 321 325 326 327 326 328 328 327 329 328 327 330 328 324 327 333 335 338 339 334 326 324 318 313 309 287 278 272 243
321 320 321 331 323 319 322 316 311 309 313 313 317 318 322 324 326 329 324 323 326 326 327 327 327 327 329 326 323 327 332 337 339 339 334 328 327 319 314 309 309 279 271 241
318 318 320 327 322 317 318 319 310 311 310 314 315 325 320 325 328 328 322 323 324 325 325 325 325 325 327 325 323 327 331 337 338 339 334 329 328 319 315 315 304 290 270 234
317 315 317 322 324 315 321 314 310 309 313 318 317 321 325 325 326 326 324 323 323 324 322 322 324 323 325 324 324 327 331 337 339 339 334 329 328 318 315 321 306 297 263 230
309 311 314 319 319 312 324 311 305 309 316 315 319 322 322 322 324 324 322 321 319 319 318 319 322 321 324 324 325 329 332 337 340 339 334 329 329 319 316 322 312 302 258 230
309 312 316 320 315 315 320 309 310 315 320 314 320 319 319 320 321 322 320 318 317 316 318 317 321 320 322 323 327 330 332 339 340 340 333 327 330 320 319 322 317 304 251 229
315 318 321 316 309 312 316 308 314 320 322 319 317 318 320 319 318 319 316 314 313 314 317 317 321 320 324 324 328 330 333 339 341 339 331 327 329 322 321 325 320 308 245 223
309 314 317 306 305 312 313 315 319 319 316 316 317 318 319 319 318 318 316 316 318 321 322 318 320 320 327 325 329 329 334 340 342 338 330 327 330 324 323 328 323 310 241 220
310 318 310 305 304 316 314 316 316 314 317 317 318 317 316 314 312 311 317 323 324 323 323 318 321 324 326 325 328 330 335 341 342 337 331 328 330 326 325 331 326 307 243 218
310 315 303 306 309 314 314 313 315 315 316 316 316 316 315 315 312 314 318 320 321 322 320 320 320 324 325 326 327 330 336 342 343 337 334 331 328 329 328 333 330 302 235 213
314 305 306 305 314 314 313 316 316 315 316 316 317 318 316 314 314 317 321 322 325 320 320 318 324 327 322 325 326 330 338 341 341 337 335 332 329 332 329 334 334 301 220 207
316 302 305 308 309 310 313 315 314 316 315 315 317 316 315 314 317 320 322 322 321 321 325 326 329 332 320 324 327 331 340 341 341 338 334 334 332 334 331 337 339 300 217 203
300 302 303 307 307 313 318 315 315 317 316 315 313 312 315 316 316 319 322 322 314 318 326 326 330 330 321 324 328 332 341 341 341 339 334 337 337 336 332 339 340 315 226 199
Height
5834 5832 5830 5829 5826 5822 5818 5813 5809 5803 5795 5788 5781 5772 5763 5757 5749 5740 5732 5723 5714 5705 5696 5686 5678 5670 5661 5653 5647 5638 5628 5621 5616 5613 5611 5611 5611 5612 5613 5614 5617 5621 5629 5639
5832 5829 5827 5824 5821 5816 5813 5808 5803 5798 5790 5782 5775 5768 5758 5751 5742 5735 5726 5718 5709 5700 5691 5681 5673 5665 5656 5649 5641 5632 5622 5613 5607 5604 5602 5602 5603 5605 5605 5605 5608 5612 5617 5624
5828 5826 5823 5820 5816 5812 5807 5801 5795 5790 5785 5777 5768 5762 5750 5744 5736 5728 5720 5712 5703 5693 5685 5675 5667 5658 5651 5644 5636 5628 5618 5608 5599 5595 5595 5595 5595 5595 5596 5597 5598 5601 5606 5613
5824 5821 5818 5814 5810 5806 5801 5794 5787 5781 5776 5770 5760 5754 5743 5736 5729 5720 5712 5705 5696 5687 5678 5669 5660 5652 5644 5636 5629 5621 5613 5603 5593 5586 5586 5585 5587 5587 5587 5588 5590 5590 5594 5600
5820 5816 5813 5809 5805 5799 5793 5785 5779 5773 5768 5763 5752 5744 5736 5728 5722 5712 5704 5696 5688 5678 5670 5661 5653 5644 5636 5628 5620 5613 5606 5597 5588 5580 5576 5577 5576 5578 5578 5580 5580 5581 5582 5587
5816 5812 5808 5803 5799 5794 5787 5780 5774 5767 5760 5754 5745 5737 5731 5720 5712 5704 5696 5688 5680 5670 5661 5652 5644 5634 5626 5618 5611 5603 5596 5589 5581 5574 5568 5565 5565 5566 5567 5568 5570 5571 5573 5575
5813 5807 5803 5798 5793 5790 5784 5774 5766 5759 5753 5747 5740 5731 5721 5712 5705 5697 5689 5680 5671 5662 5652 5643 5634 5625 5616 5608 5600 5593 5585 5579 5572 5565 5558 5554 5551 5553 5554 5555 5556 5559 5560 5563
5810 5805 5799 5794 5789 5783 5777 5769 5760 5751 5747 5742 5735 5726 5716 5705 5696 5689 5680 5671 5662 5653 5642 5633 5624 5615 5604 5596 5588 5580 5573 5567 5559 5553 5546 5542 5541 5539 5539 5541 5541 5543 5545 5547
5800 5800 5793 5787 5782 5777 5769 5761 5753 5746 5740 5733 5725 5720 5713 5697 5688 5680 5672 5663 5654 5643 5633 5623 5613 5604 5594 5585 5577 5569 5561 5553 5545 5536 5531 5526 5525 5526 5524 5522 5520 5520 5523 5525
5795 5791 5786 5780 5774 5770 5763 5755 5746 5737 5728 5721 5715 5709 5699 5690 5680 5671 5663 5654 5644 5633 5623 5612 5602 5593 5582 5574 5565 5556 5547 5539 5530 5520 5514 5509 5506 5505 5503 5497 5490 5485 5486 5492
5787 5783 5780 5775 5767 5762 5757 5748 5739 5730 5724 5714 5702 5703 5690 5679 5672 5663 5655 5644 5633 5622 5612 5601 5590 5581 5571 5561 5552 5542 5533 5523 5513 5502 5495 5490 5487 5482 5474 5461 5448 5440 5438 5447
5780 5775 5771 5767 5758 5754 5749 5740 5732 5722 5716 5708 5696 5693 5682 5670 5663 5654 5646 5634 5623 5611 5600 5590 5579 5569 5560 5549 5539 5529 5518 5507 5494 5482 5474 5467 5460 5449 5433 5417 5405 5399 5400 5403
5773 5767 5761 5759 5750 5744 5742 5733 5723 5715 5707 5700 5688 5680 5673 5660 5652 5643 5634 5624 5613 5602 5590 5579 5567 5556 5547 5536 5526 5515 5502 5490 5476 5462 5450 5440 5429 5415 5400 5387 5378 5373 5367 5367
5766 5762 5758 5754 5745 5738 5735 5727 5715 5705 5694 5687 5680 5669 5670 5655 5643 5636 5624 5612 5603 5593 5581 5569 5556 5544 5533 5521 5512 5501 5488 5473 5459 5443 5429 5417 5402 5389 5377 5366 5357 5350 5342 5342
5760 5754 5748 5747 5737 5728 5726 5716 5703 5692 5684 5674 5671 5655 5651 5642 5634 5627 5616 5605 5593 5581 5569 5557 5545 5532 5521 5510 5499 5486 5473 5458 5443 5427 5411 5398 5382 5370 5359 5349 5339 5332 5327 5326
5750 5742 5737 5738 5728 5718 5714 5704 5689 5680 5673 5665 5655 5653 5638 5630 5621 5614 5603 5592 5581 5569 5556 5545 5532 5520 5508 5498 5486 5473 5460 5445 5429 5412 5396 5382 5367 5356 5346 5335 5325 5317 5313 5313
5739 5732 5727 5723 5718 5704 5703 5693 5679 5669 5662 5654 5644 5637 5630 5621 5610 5600 5591 5577 5566 5556 5544 5532 5520 5508 5496 5485 5473 5461 5447 5431 5415 5397 5381 5368 5354 5344 5334 5323 5313 5304 5300 5300
5729 5723 5718 5714 5706 5694 5692 5679 5669 5661 5654 5642 5636 5627 5617 5609 5600 5586 5573 5563 5553 5541 5530 5518 5506 5494 5482 5471 5460 5448 5434 5418 5401 5383 5368 5355 5341 5330 5321 5310 5301 5292 5286 5287
5719 5713 5707 5699 5689 5680 5682 5665 5657 5652 5652 5633 5626 5617 5605 5596 5590 5577 5561 5548 5535 5524 5516 5504 5493 5482 5471 5459 5448 5435 5421 5405 5389 5370 5356 5343 5328 5317 5308 5298 5287 5278 5273 5276
5705 5700 5697 5686 5673 5666 5665 5655 5649 5643 5640 5626 5614 5603 5591 5578 5568 5568 5548 5534 5520 5507 5498 5491 5481 5470 5460 5449 5437 5424 5410 5394 5377 5359 5345 5331 5317 5305 5296 5285 5273 5265 5261 5266
5692 5691 5685 5673 5661 5661 5649 5641 5635 5628 5618 5619 5602 5593 5582 5567 5548 5539 5531 5517 5505 5495 5487 5476 5467 5457 5448 5437 5428 5415 5400 5383 5366 5349 5335 5320 5307 5295 5285 5274 5262 5253 5251 5256
5682 5680 5671 5663 5650 5651 5642 5633 5622 5614 5611 5590 5590 5577 5570 5558 5544 5527 5513 5501 5491 5481 5471 5462 5455 5444 5435 5425 5418 5406 5391 5374 5356 5340 5325 5311 5298 5285 5276 5265 5253 5244 5242 5246
5673 5670 5659 5653 5644 5639 5629 5623 5613 5598 5591 5585 5573 5566 5549 5540 5528 5514 5502 5489 5478 5467 5458 5452 5444 5434 5424 5415 5407 5398 5383 5366 5349 5333 5317 5303 5290 5279 5270 5258 5247 5238 5235 5239
5662 5651 5648 5638 5641 5629 5617 5609 5600 5587 5577 5569 5558 5545 5536 5525 5513 5503 5491 5480 5468 5457 5449 5442 5434 5424 5414 5407 5399 5388 5375 5358 5341 5326 5311 5297 5285 5273 5265 5254 5244 5235 5234 5236
5645 5636 5635 5629 5623 5624 5608 5597 5587 5581 5567 5555 5548 5532 5522 5512 5503 5491 5479 5468 5458 5449 5440 5433 5425 5415 5406 5400 5392 5381 5367 5352 5335 5319 5306 5293 5281 5270 5263 5253 5244 5236 5235 5239
5629 5624 5617 5616 5606 5598 5600 5590 5573 5565 5556 5545 5533 5527 5512 5499 5490 5479 5467 5457 5448 5440 5431 5425 5416 5407 5399 5394 5385 5374 5360 5345 5330 5315 5302 5290 5278 5268 5262 5254 5245 5239 5237 5241